Year,Month,Day,Hour,Minute,Value (Times are PST for temperature in C)
2017,01,05,00,00,-9.10
2017,01,05,00,01,-9.10
2017,01,05,00,02,-9.10
2017,01,05,00,03,-9.10
2017,01,05,00,04,-9.10
2017,01,05,00,05,-9.10
2017,01,05,00,06,-9.20
2017,01,05,00,07,-9.20
2017,01,05,00,08,-9.20
2017,01,05,00,09,-9.20
2017,01,05,00,10,-9.20
2017,01,05,00,11,-9.20
2017,01,05,00,12,-9.20
2017,01,05,00,13,-9.20
2017,01,05,00,14,-9.20
2017,01,05,00,15,-9.20
2017,01,05,00,16,-9.20
2017,01,05,00,17,-9.20
2017,01,05,00,18,-9.20
2017,01,05,00,19,-9.20
2017,01,05,00,20,-9.20
2017,01,05,00,21,-9.20
2017,01,05,00,22,-9.20
2017,01,05,00,23,-9.20
2017,01,05,00,24,-9.20
2017,01,05,00,25,-9.20
2017,01,05,00,26,-9.20
2017,01,05,00,27,-9.20
2017,01,05,00,28,-9.20
2017,01,05,00,29,-9.20
2017,01,05,00,30,-9.20
2017,01,05,00,31,-9.20
2017,01,05,00,32,-9.20
2017,01,05,00,33,-9.20
2017,01,05,00,34,-9.20
2017,01,05,00,35,-9.20
2017,01,05,00,36,-9.20
2017,01,05,00,37,-9.20
2017,01,05,00,38,-9.30
2017,01,05,00,39,-9.30
2017,01,05,00,40,-9.30
2017,01,05,00,41,-9.30
2017,01,05,00,42,-9.30
2017,01,05,00,43,-9.30
2017,01,05,00,44,-9.30
2017,01,05,00,45,-9.30
2017,01,05,00,46,-9.30
2017,01,05,00,47,-9.30
2017,01,05,00,48,-9.30
2017,01,05,00,49,-9.30
2017,01,05,00,50,-9.30
2017,01,05,00,51,-9.40
2017,01,05,00,52,-9.40
2017,01,05,00,53,-9.40
2017,01,05,00,54,-9.40
2017,01,05,00,55,-9.40
2017,01,05,00,56,-9.40
2017,01,05,00,57,-9.40
2017,01,05,00,58,-9.40
2017,01,05,00,59,-9.40
2017,01,05,01,00,-9.40
2017,01,05,01,01,-9.40
2017,01,05,01,02,-9.40
2017,01,05,01,03,-9.40
2017,01,05,01,04,-9.40
2017,01,05,01,05,-9.40
2017,01,05,01,06,-9.40
2017,01,05,01,07,-9.40
2017,01,05,01,08,-9.40
2017,01,05,01,09,-9.40
2017,01,05,01,10,-9.40
2017,01,05,01,11,-9.40
2017,01,05,01,12,-9.40
2017,01,05,01,13,-9.40
2017,01,05,01,14,-9.40
2017,01,05,01,15,-9.40
2017,01,05,01,16,-9.40
2017,01,05,01,17,-9.40
2017,01,05,01,18,-9.40
2017,01,05,01,19,-9.40
2017,01,05,01,20,-9.40
2017,01,05,01,21,-9.40
2017,01,05,01,22,-9.40
2017,01,05,01,23,-9.40
2017,01,05,01,24,-9.40
2017,01,05,01,25,-9.40
2017,01,05,01,26,-9.40
2017,01,05,01,27,-9.40
2017,01,05,01,28,-9.40
2017,01,05,01,29,-9.40
2017,01,05,01,30,-9.40
2017,01,05,01,31,-9.40
2017,01,05,01,32,-9.40
2017,01,05,01,33,-9.40
2017,01,05,01,34,-9.50
2017,01,05,01,35,-9.50
2017,01,05,01,36,-9.50
2017,01,05,01,37,-9.50
2017,01,05,01,38,-9.50
2017,01,05,01,39,-9.50
2017,01,05,01,40,-9.60
2017,01,05,01,41,-9.60
2017,01,05,01,42,-9.60
2017,01,05,01,43,-9.60
2017,01,05,01,44,-9.60
2017,01,05,01,45,-9.60
2017,01,05,01,46,-9.60
2017,01,05,01,47,-9.60
2017,01,05,01,48,-9.60
2017,01,05,01,49,-9.60
2017,01,05,01,50,-9.60
2017,01,05,01,51,-9.60
2017,01,05,01,52,-9.70
2017,01,05,01,53,-9.70
2017,01,05,01,54,-9.70
2017,01,05,01,55,-9.70
2017,01,05,01,56,-9.70
2017,01,05,01,57,-9.70
2017,01,05,01,58,-9.70
2017,01,05,01,59,-9.70
2017,01,05,02,00,-9.70
2017,01,05,02,01,-9.70
2017,01,05,02,02,-9.70
2017,01,05,02,03,-9.70
2017,01,05,02,04,-9.70
2017,01,05,02,05,-9.70
2017,01,05,02,06,-9.70
2017,01,05,02,07,-9.70
2017,01,05,02,08,-9.70
2017,01,05,02,09,-9.70
2017,01,05,02,10,-9.70
2017,01,05,02,11,-9.70
2017,01,05,02,12,-9.70
2017,01,05,02,13,-9.70
2017,01,05,02,14,-9.80
2017,01,05,02,15,-9.80
2017,01,05,02,16,-9.80
2017,01,05,02,17,-9.80
2017,01,05,02,18,-9.80
2017,01,05,02,19,-9.80
2017,01,05,02,20,-9.80
2017,01,05,02,21,-9.90
2017,01,05,02,22,-9.90
2017,01,05,02,23,-9.90
2017,01,05,02,24,-9.90
2017,01,05,02,25,-9.90
2017,01,05,02,26,-9.90
2017,01,05,02,27,-9.90
2017,01,05,02,28,-9.90
2017,01,05,02,29,-9.90
2017,01,05,02,30,-9.90
2017,01,05,02,31,-9.90
2017,01,05,02,32,-9.80
2017,01,05,02,33,-9.80
2017,01,05,02,34,-9.80
2017,01,05,02,35,-9.80
2017,01,05,02,36,-9.80
2017,01,05,02,37,-9.80
2017,01,05,02,38,-9.80
2017,01,05,02,39,-9.80
2017,01,05,02,40,-9.80
2017,01,05,02,41,-9.80
2017,01,05,02,42,-9.80
2017,01,05,02,43,-9.80
2017,01,05,02,44,-9.80
2017,01,05,02,45,-9.80
2017,01,05,02,46,-9.80
2017,01,05,02,47,-9.90
2017,01,05,02,48,-9.90
2017,01,05,02,49,-9.90
2017,01,05,02,50,-9.90
2017,01,05,02,51,-9.90
2017,01,05,02,52,-9.90
2017,01,05,02,53,-9.90
2017,01,05,02,54,-9.90
2017,01,05,02,55,-9.90
2017,01,05,02,56,-9.90
2017,01,05,02,57,-9.90
2017,01,05,02,58,-9.90
2017,01,05,02,59,-9.90
2017,01,05,03,00,-9.90
2017,01,05,03,01,-9.90
2017,01,05,03,02,-10.00
2017,01,05,03,03,-10.00
2017,01,05,03,04,-10.00
2017,01,05,03,05,-10.00
2017,01,05,03,06,-10.00
2017,01,05,03,07,-10.00
2017,01,05,03,08,-10.00
2017,01,05,03,09,-10.00
2017,01,05,03,10,-10.10
2017,01,05,03,11,-10.10
2017,01,05,03,12,-10.10
2017,01,05,03,13,-10.10
2017,01,05,03,14,-10.10
2017,01,05,03,15,-10.10
2017,01,05,03,16,-10.10
2017,01,05,03,17,-10.10
2017,01,05,03,18,-10.10
2017,01,05,03,19,-10.10
2017,01,05,03,20,-10.10
2017,01,05,03,21,-10.10
2017,01,05,03,22,-10.10
2017,01,05,03,23,-10.10
2017,01,05,03,24,-10.10
2017,01,05,03,25,-10.10
2017,01,05,03,26,-10.10
2017,01,05,03,27,-10.10
2017,01,05,03,28,-10.10
2017,01,05,03,29,-10.10
2017,01,05,03,30,-10.10
2017,01,05,03,31,-10.10
2017,01,05,03,32,-10.10
2017,01,05,03,33,-10.10
2017,01,05,03,34,-10.10
2017,01,05,03,35,-10.10
2017,01,05,03,36,-10.10
2017,01,05,03,37,-10.10
2017,01,05,03,38,-10.10
2017,01,05,03,39,-10.10
2017,01,05,03,40,-10.10
2017,01,05,03,41,-10.10
2017,01,05,03,42,-10.10
2017,01,05,03,43,-10.10
2017,01,05,03,44,-10.10
2017,01,05,03,45,-10.10
2017,01,05,03,46,-10.10
2017,01,05,03,47,-10.20
2017,01,05,03,48,-10.20
2017,01,05,03,49,-10.20
2017,01,05,03,50,-10.20
2017,01,05,03,51,-10.20
2017,01,05,03,52,-10.20
2017,01,05,03,53,-10.20
2017,01,05,03,54,-10.20
2017,01,05,03,55,-10.20
2017,01,05,03,56,-10.20
2017,01,05,03,57,-10.20
2017,01,05,03,58,-10.20
2017,01,05,03,59,-10.20
2017,01,05,04,00,-10.20
2017,01,05,04,01,-10.20
2017,01,05,04,02,-10.20
2017,01,05,04,03,-10.20
2017,01,05,04,04,-10.20
2017,01,05,04,05,-10.20
2017,01,05,04,06,-10.20
2017,01,05,04,07,-10.20
2017,01,05,04,08,-10.20
2017,01,05,04,09,-10.20
2017,01,05,04,10,-10.20
2017,01,05,04,11,-10.30
2017,01,05,04,12,-10.30
2017,01,05,04,13,-10.30
2017,01,05,04,14,-10.30
2017,01,05,04,15,-10.30
2017,01,05,04,16,-10.30
2017,01,05,04,17,-10.30
2017,01,05,04,18,-10.30
2017,01,05,04,19,-10.30
2017,01,05,04,20,-10.30
2017,01,05,04,21,-10.30
2017,01,05,04,22,-10.30
2017,01,05,04,23,-10.30
2017,01,05,04,24,-10.30
2017,01,05,04,25,-10.30
2017,01,05,04,26,-10.30
2017,01,05,04,27,-10.30
2017,01,05,04,28,-10.30
2017,01,05,04,29,-10.30
2017,01,05,04,30,-10.30
2017,01,05,04,31,-10.40
2017,01,05,04,32,-10.30
2017,01,05,04,33,-10.30
2017,01,05,04,34,-10.30
2017,01,05,04,35,-10.30
2017,01,05,04,36,-10.30
2017,01,05,04,37,-10.30
2017,01,05,04,38,-10.30
2017,01,05,04,39,-10.30
2017,01,05,04,40,-10.40
2017,01,05,04,41,-10.40
2017,01,05,04,42,-10.40
2017,01,05,04,43,-10.40
2017,01,05,04,44,-10.40
2017,01,05,04,45,-10.40
2017,01,05,04,46,-10.40
2017,01,05,04,47,-10.40
2017,01,05,04,48,-10.40
2017,01,05,04,49,-10.40
2017,01,05,04,50,-10.40
2017,01,05,04,51,-10.40
2017,01,05,04,52,-10.40
2017,01,05,04,53,-10.40
2017,01,05,04,54,-10.40
2017,01,05,04,55,-10.40
2017,01,05,04,56,-10.40
2017,01,05,04,57,-10.40
2017,01,05,04,58,-10.40
2017,01,05,04,59,-10.50
2017,01,05,05,00,-10.50
2017,01,05,05,01,-10.50
2017,01,05,05,02,-10.50
2017,01,05,05,03,-10.50
2017,01,05,05,04,-10.50
2017,01,05,05,05,-10.60
2017,01,05,05,06,-10.60
2017,01,05,05,07,-10.60
2017,01,05,05,08,-10.60
2017,01,05,05,09,-10.60
2017,01,05,05,10,-10.60
2017,01,05,05,11,-10.60
2017,01,05,05,12,-10.60
2017,01,05,05,13,-10.60
2017,01,05,05,14,-10.60
2017,01,05,05,15,-10.60
2017,01,05,05,16,-10.60
2017,01,05,05,17,-10.60
2017,01,05,05,18,-10.60
2017,01,05,05,19,-10.70
2017,01,05,05,20,-10.70
2017,01,05,05,21,-10.70
2017,01,05,05,22,-10.70
2017,01,05,05,23,-10.70
2017,01,05,05,24,-10.70
2017,01,05,05,25,-10.70
2017,01,05,05,26,-10.70
2017,01,05,05,27,-10.70
2017,01,05,05,28,-10.70
2017,01,05,05,29,-10.70
2017,01,05,05,30,-10.70
2017,01,05,05,31,-10.70
2017,01,05,05,32,-10.70
2017,01,05,05,33,-10.70
2017,01,05,05,34,-10.70
2017,01,05,05,35,-10.70
2017,01,05,05,36,-10.70
2017,01,05,05,37,-10.70
2017,01,05,05,38,-10.70
2017,01,05,05,39,-10.70
2017,01,05,05,40,-10.70
2017,01,05,05,41,-10.70
2017,01,05,05,42,-10.70
2017,01,05,05,43,-10.70
2017,01,05,05,44,-10.80
2017,01,05,05,45,-10.80
2017,01,05,05,46,-10.80
2017,01,05,05,47,-10.80
2017,01,05,05,48,-10.80
2017,01,05,05,49,-10.80
2017,01,05,05,50,-10.80
2017,01,05,05,51,-10.80
2017,01,05,05,52,-10.80
2017,01,05,05,53,-10.80
2017,01,05,05,54,-10.80
2017,01,05,05,55,-10.80
2017,01,05,05,56,-10.80
2017,01,05,05,57,-10.80
2017,01,05,05,58,-10.80
2017,01,05,05,59,-10.80
2017,01,05,06,00,-10.80
2017,01,05,06,01,-10.80
2017,01,05,06,02,-10.80
2017,01,05,06,03,-10.80
2017,01,05,06,04,-10.80
2017,01,05,06,05,-10.90
2017,01,05,06,06,-10.90
2017,01,05,06,07,-10.90
2017,01,05,06,08,-10.90
2017,01,05,06,09,-10.90
2017,01,05,06,10,-10.80
2017,01,05,06,11,-10.90
2017,01,05,06,12,-10.90
2017,01,05,06,13,-10.80
2017,01,05,06,14,-10.90
2017,01,05,06,15,-10.90
2017,01,05,06,16,-10.90
2017,01,05,06,17,-10.90
2017,01,05,06,18,-10.90
2017,01,05,06,19,-10.90
2017,01,05,06,20,-10.90
2017,01,05,06,21,-10.90
2017,01,05,06,22,-10.90
2017,01,05,06,23,-10.90
2017,01,05,06,24,-10.90
2017,01,05,06,25,-10.90
2017,01,05,06,26,-10.90
2017,01,05,06,27,-10.90
2017,01,05,06,28,-10.90
2017,01,05,06,29,-11.00
2017,01,05,06,30,-11.00
2017,01,05,06,31,-11.00
2017,01,05,06,32,-11.00
2017,01,05,06,33,-11.00
2017,01,05,06,34,-11.00
2017,01,05,06,35,-11.00
2017,01,05,06,36,-11.00
2017,01,05,06,37,-11.00
2017,01,05,06,38,-11.00
2017,01,05,06,39,-11.00
2017,01,05,06,40,-11.00
2017,01,05,06,41,-11.00
2017,01,05,06,42,-11.00
2017,01,05,06,43,-11.00
2017,01,05,06,44,-11.00
2017,01,05,06,45,-11.00
2017,01,05,06,46,-11.10
2017,01,05,06,47,-11.10
2017,01,05,06,48,-11.10
2017,01,05,06,49,-11.10
2017,01,05,06,50,-11.10
2017,01,05,06,51,-11.10
2017,01,05,06,52,-11.10
2017,01,05,06,53,-11.10
2017,01,05,06,54,-11.10
2017,01,05,06,55,-11.10
2017,01,05,06,56,-11.10
2017,01,05,06,57,-11.10
2017,01,05,06,58,-11.10
2017,01,05,06,59,-11.10
2017,01,05,07,00,-11.10
2017,01,05,07,01,-11.10
2017,01,05,07,02,-11.10
2017,01,05,07,03,-11.10
2017,01,05,07,04,-11.10
2017,01,05,07,05,-11.10
2017,01,05,07,06,-11.10
2017,01,05,07,07,-11.10
2017,01,05,07,08,-11.10
2017,01,05,07,09,-11.10
2017,01,05,07,10,-11.10
2017,01,05,07,11,-11.10
2017,01,05,07,12,-11.10
2017,01,05,07,13,-11.10
2017,01,05,07,14,-11.10
2017,01,05,07,15,-11.10
2017,01,05,07,16,-11.10
2017,01,05,07,17,-11.10
2017,01,05,07,18,-11.10
2017,01,05,07,19,-11.10
2017,01,05,07,20,-11.10
2017,01,05,07,21,-11.10
2017,01,05,07,22,-11.10
2017,01,05,07,23,-11.10
2017,01,05,07,24,-11.10
2017,01,05,07,25,-11.10
2017,01,05,07,26,-11.10
2017,01,05,07,27,-11.10
2017,01,05,07,28,-11.10
2017,01,05,07,29,-11.10
2017,01,05,07,30,-11.20
2017,01,05,07,31,-11.20
2017,01,05,07,32,-11.20
2017,01,05,07,33,-11.20
2017,01,05,07,34,-11.20
2017,01,05,07,35,-11.20
2017,01,05,07,36,-11.20
2017,01,05,07,37,-11.20
2017,01,05,07,38,-11.20
2017,01,05,07,39,-11.20
2017,01,05,07,40,-11.20
2017,01,05,07,41,-11.20
2017,01,05,07,42,-11.20
2017,01,05,07,43,-11.20
2017,01,05,07,44,-11.20
2017,01,05,07,45,-11.20
2017,01,05,07,46,-11.20
2017,01,05,07,47,-11.20
2017,01,05,07,48,-11.20
2017,01,05,07,49,-11.20
2017,01,05,07,50,-11.20
2017,01,05,07,51,-11.20
2017,01,05,07,52,-11.20
2017,01,05,07,53,-11.20
2017,01,05,07,54,-11.20
2017,01,05,07,55,-11.20
2017,01,05,07,56,-11.20
2017,01,05,07,57,-11.20
2017,01,05,07,58,-11.20
2017,01,05,07,59,-11.20
2017,01,05,08,00,-11.30
2017,01,05,08,01,-11.30
2017,01,05,08,02,-11.30
2017,01,05,08,03,-11.30
2017,01,05,08,04,-11.30
2017,01,05,08,05,-11.30
2017,01,05,08,06,-11.30
2017,01,05,08,07,-11.30
2017,01,05,08,08,-11.30
2017,01,05,08,09,-11.30
2017,01,05,08,10,-11.30
2017,01,05,08,11,-11.30
2017,01,05,08,12,-11.30
2017,01,05,08,13,-11.30
2017,01,05,08,14,-11.30
2017,01,05,08,15,-11.30
2017,01,05,08,16,-11.30
2017,01,05,08,17,-11.30
2017,01,05,08,18,-11.30
2017,01,05,08,19,-11.30
2017,01,05,08,20,-11.30
2017,01,05,08,21,-11.20
2017,01,05,08,22,-11.20
2017,01,05,08,23,-11.20
2017,01,05,08,24,-11.20
2017,01,05,08,25,-11.20
2017,01,05,08,26,-11.20
2017,01,05,08,27,-11.20
2017,01,05,08,28,-11.20
2017,01,05,08,29,-11.20
2017,01,05,08,30,-11.20
2017,01,05,08,31,-11.20
2017,01,05,08,32,-11.20
2017,01,05,08,33,-11.20
2017,01,05,08,34,-11.20
2017,01,05,08,35,-11.20
2017,01,05,08,36,-11.20
2017,01,05,08,37,-11.20
2017,01,05,08,38,-11.20
2017,01,05,08,39,-11.20
2017,01,05,08,40,-11.20
2017,01,05,08,41,-11.20
2017,01,05,08,42,-11.20
2017,01,05,08,43,-11.20
2017,01,05,08,44,-11.20
2017,01,05,08,45,-11.20
2017,01,05,08,46,-11.20
2017,01,05,08,47,-11.20
2017,01,05,08,48,-11.20
2017,01,05,08,49,-11.20
2017,01,05,08,50,-11.20
2017,01,05,08,51,-11.10
2017,01,05,08,52,-11.10
2017,01,05,08,53,-11.10
2017,01,05,08,54,-11.20
2017,01,05,08,55,-11.20
2017,01,05,08,56,-11.10
2017,01,05,08,57,-11.10
2017,01,05,08,58,-11.10
2017,01,05,08,59,-11.10
2017,01,05,09,00,-11.10
2017,01,05,09,01,-11.20
2017,01,05,09,02,-11.10
2017,01,05,09,03,-11.10
2017,01,05,09,04,-11.10
2017,01,05,09,05,-11.10
2017,01,05,09,06,-11.10
2017,01,05,09,07,-11.10
2017,01,05,09,08,-11.00
2017,01,05,09,09,-11.00
2017,01,05,09,10,-11.00
2017,01,05,09,11,-10.90
2017,01,05,09,12,-10.90
2017,01,05,09,13,-10.90
2017,01,05,09,14,-10.90
2017,01,05,09,15,-10.90
2017,01,05,09,16,-10.90
2017,01,05,09,17,-10.90
2017,01,05,09,18,-10.90
2017,01,05,09,19,-10.90
2017,01,05,09,20,-10.80
2017,01,05,09,21,-10.80
2017,01,05,09,22,-10.80
2017,01,05,09,23,-10.70
2017,01,05,09,24,-10.70
2017,01,05,09,25,-10.60
2017,01,05,09,26,-10.60
2017,01,05,09,27,-10.50
2017,01,05,09,28,-10.50
2017,01,05,09,29,-10.50
2017,01,05,09,30,-10.40
2017,01,05,09,31,-10.30
2017,01,05,09,32,-10.30
2017,01,05,09,33,-10.20
2017,01,05,09,34,-10.20
2017,01,05,09,35,-10.10
2017,01,05,09,36,-10.10
2017,01,05,09,37,-10.00
2017,01,05,09,38,-10.00
2017,01,05,09,39,-9.90
2017,01,05,09,40,-9.90
2017,01,05,09,41,-9.80
2017,01,05,09,42,-9.80
2017,01,05,09,43,-9.80
2017,01,05,09,44,-9.70
2017,01,05,09,45,-9.70
2017,01,05,09,46,-9.70
2017,01,05,09,47,-9.60
2017,01,05,09,48,-9.50
2017,01,05,09,49,-9.50
2017,01,05,09,50,-9.50
2017,01,05,09,51,-9.50
2017,01,05,09,52,-9.50
2017,01,05,09,53,-9.50
2017,01,05,09,54,-9.40
2017,01,05,09,55,-9.40
2017,01,05,09,56,-9.40
2017,01,05,09,57,-9.30
2017,01,05,09,58,-9.30
2017,01,05,09,59,-9.20
2017,01,05,10,00,-9.10
2017,01,05,10,01,-9.00
2017,01,05,10,02,-8.80
2017,01,05,10,03,-8.80
2017,01,05,10,04,-8.70
2017,01,05,10,05,-8.60
2017,01,05,10,06,-8.50
2017,01,05,10,07,-8.40
2017,01,05,10,08,-8.40
2017,01,05,10,09,-8.30
2017,01,05,10,10,-8.30
2017,01,05,10,11,-8.20
2017,01,05,10,12,-8.10
2017,01,05,10,13,-8.10
2017,01,05,10,14,-8.00
2017,01,05,10,15,-8.00
2017,01,05,10,16,-7.90
2017,01,05,10,17,-7.90
2017,01,05,10,18,-7.80
2017,01,05,10,19,-7.70
2017,01,05,10,20,-7.70
2017,01,05,10,21,-7.70
2017,01,05,10,22,-7.60
2017,01,05,10,23,-7.60
2017,01,05,10,24,-7.50
2017,01,05,10,25,-7.50
2017,01,05,10,26,-7.40
2017,01,05,10,27,-7.30
2017,01,05,10,28,-7.30
2017,01,05,10,29,-7.20
2017,01,05,10,30,-7.20
2017,01,05,10,31,-7.10
2017,01,05,10,32,-7.00
2017,01,05,10,33,-7.00
2017,01,05,10,34,-6.90
2017,01,05,10,35,-6.80
2017,01,05,10,36,-6.80
2017,01,05,10,37,-6.80
2017,01,05,10,38,-6.70
2017,01,05,10,39,-6.70
2017,01,05,10,40,-6.70
2017,01,05,10,41,-6.60
2017,01,05,10,42,-6.60
2017,01,05,10,43,-6.60
2017,01,05,10,44,-6.50
2017,01,05,10,45,-6.50
2017,01,05,10,46,-6.40
2017,01,05,10,47,-6.40
2017,01,05,10,48,-6.40
2017,01,05,10,49,-6.40
2017,01,05,10,50,-6.40
2017,01,05,10,51,-6.40
2017,01,05,10,52,-6.30
2017,01,05,10,53,-6.30
2017,01,05,10,54,-6.30
2017,01,05,10,55,-6.30
2017,01,05,10,56,-6.20
2017,01,05,10,57,-6.20
2017,01,05,10,58,-6.30
2017,01,05,10,59,-6.30
2017,01,05,11,00,-6.20
2017,01,05,11,01,-6.20
2017,01,05,11,02,-6.20
2017,01,05,11,03,-6.20
2017,01,05,11,04,-6.10
2017,01,05,11,05,-6.10
2017,01,05,11,06,-6.10
2017,01,05,11,07,-6.10
2017,01,05,11,08,-6.00
2017,01,05,11,09,-6.00
2017,01,05,11,10,-5.90
2017,01,05,11,11,-5.90
2017,01,05,11,12,-5.90
2017,01,05,11,13,-5.90
2017,01,05,11,14,-5.90
2017,01,05,11,15,-5.90
2017,01,05,11,16,-5.80
2017,01,05,11,17,-5.80
2017,01,05,11,18,-5.70
2017,01,05,11,19,-5.70
2017,01,05,11,20,-5.60
2017,01,05,11,21,-5.60
2017,01,05,11,22,-5.50
2017,01,05,11,23,-5.40
2017,01,05,11,24,-5.40
2017,01,05,11,25,-5.30
2017,01,05,11,26,-5.30
2017,01,05,11,27,-5.30
2017,01,05,11,28,-5.30
2017,01,05,11,29,-5.30
2017,01,05,11,30,-5.20
2017,01,05,11,31,-5.20
2017,01,05,11,32,-5.20
2017,01,05,11,33,-5.10
2017,01,05,11,34,-5.10
2017,01,05,11,35,-5.00
2017,01,05,11,36,-5.00
2017,01,05,11,37,-4.90
2017,01,05,11,38,-4.80
2017,01,05,11,39,-4.70
2017,01,05,11,40,-4.70
2017,01,05,11,41,-4.60
2017,01,05,11,42,-4.50
2017,01,05,11,43,-4.40
2017,01,05,11,44,-4.40
2017,01,05,11,45,-4.40
2017,01,05,11,46,-4.40
2017,01,05,11,47,-4.30
2017,01,05,11,48,-4.30
2017,01,05,11,49,-4.20
2017,01,05,11,50,-4.20
2017,01,05,11,51,-4.10
2017,01,05,11,52,-4.10
2017,01,05,11,53,-4.10
2017,01,05,11,54,-4.10
2017,01,05,11,55,-4.10
2017,01,05,11,56,-4.10
2017,01,05,11,57,-4.10
2017,01,05,11,58,-4.10
2017,01,05,11,59,-4.10
2017,01,05,12,00,-4.10
2017,01,05,12,01,-4.00
2017,01,05,12,02,-4.00
2017,01,05,12,03,-3.90
2017,01,05,12,04,-3.90
2017,01,05,12,05,-3.80
2017,01,05,12,06,-3.80
2017,01,05,12,07,-3.70
2017,01,05,12,08,-3.60
2017,01,05,12,09,-3.60
2017,01,05,12,10,-3.50
2017,01,05,12,11,-3.40
2017,01,05,12,12,-3.30
2017,01,05,12,13,-3.20
2017,01,05,12,14,-3.10
2017,01,05,12,15,-3.00
2017,01,05,12,16,-3.00
2017,01,05,12,17,-2.90
2017,01,05,12,18,-2.80
2017,01,05,12,19,-2.70
2017,01,05,12,20,-2.70
2017,01,05,12,21,-2.60
2017,01,05,12,22,-2.50
2017,01,05,12,23,-2.50
2017,01,05,12,24,-2.40
2017,01,05,12,25,-2.40
2017,01,05,12,26,-2.40
2017,01,05,12,27,-2.50
2017,01,05,12,28,-2.50
2017,01,05,12,29,-2.50
2017,01,05,12,30,-2.50
2017,01,05,12,31,-2.50
2017,01,05,12,32,-2.50
2017,01,05,12,33,-2.50
2017,01,05,12,34,-2.50
2017,01,05,12,35,-2.40
2017,01,05,12,36,-2.40
2017,01,05,12,37,-2.40
2017,01,05,12,38,-2.40
2017,01,05,12,39,-2.40
2017,01,05,12,40,-2.50
2017,01,05,12,41,-2.60
2017,01,05,12,42,-2.60
2017,01,05,12,43,-2.60
2017,01,05,12,44,-2.60
2017,01,05,12,45,-2.60
2017,01,05,12,46,-2.60
2017,01,05,12,47,-2.60
2017,01,05,12,48,-2.60
2017,01,05,12,49,-2.70
2017,01,05,12,50,-2.80
2017,01,05,12,51,-2.80
2017,01,05,12,52,-2.90
2017,01,05,12,53,-3.00
2017,01,05,12,54,-3.00
2017,01,05,12,55,-3.10
2017,01,05,12,56,-3.20
2017,01,05,12,57,-3.20
2017,01,05,12,58,-3.20
2017,01,05,12,59,-3.20
2017,01,05,13,00,-3.30
2017,01,05,13,01,-3.30
2017,01,05,13,02,-3.30
2017,01,05,13,03,-3.30
2017,01,05,13,04,-3.30
2017,01,05,13,05,-3.30
2017,01,05,13,06,-3.30
2017,01,05,13,07,-3.30
2017,01,05,13,08,-3.30
2017,01,05,13,09,-3.30
2017,01,05,13,10,-3.30
2017,01,05,13,11,-3.30
2017,01,05,13,12,-3.30
2017,01,05,13,13,-3.30
2017,01,05,13,14,-3.30
2017,01,05,13,15,-3.30
2017,01,05,13,16,-3.20
2017,01,05,13,17,-3.20
2017,01,05,13,18,-3.20
2017,01,05,13,19,-3.20
2017,01,05,13,20,-3.20
2017,01,05,13,21,-3.20
2017,01,05,13,22,-3.10
2017,01,05,13,23,-3.10
2017,01,05,13,24,-3.10
2017,01,05,13,25,-3.10
2017,01,05,13,26,-3.10
2017,01,05,13,27,-3.10
2017,01,05,13,28,-3.00
2017,01,05,13,29,-3.00
2017,01,05,13,30,-3.00
2017,01,05,13,31,-3.00
2017,01,05,13,32,-2.90
2017,01,05,13,33,-2.90
2017,01,05,13,34,-2.90
2017,01,05,13,35,-2.90
2017,01,05,13,36,-2.90
2017,01,05,13,37,-2.90
2017,01,05,13,38,-2.90
2017,01,05,13,39,-2.90
2017,01,05,13,40,-2.90
2017,01,05,13,41,-2.90
2017,01,05,13,42,-2.90
2017,01,05,13,43,-2.90
2017,01,05,13,44,-2.90
2017,01,05,13,45,-2.90
2017,01,05,13,46,-2.90
2017,01,05,13,47,-2.90
2017,01,05,13,48,-2.90
2017,01,05,13,49,-2.80
2017,01,05,13,50,-2.80
2017,01,05,13,51,-2.80
2017,01,05,13,52,-2.70
2017,01,05,13,53,-2.70
2017,01,05,13,54,-2.70
2017,01,05,13,55,-2.70
2017,01,05,13,56,-2.70
2017,01,05,13,57,-2.70
2017,01,05,13,58,-2.60
2017,01,05,13,59,-2.60
2017,01,05,14,00,-2.60
2017,01,05,14,01,-2.60
2017,01,05,14,02,-2.60
2017,01,05,14,03,-2.60
2017,01,05,14,04,-2.60
2017,01,05,14,05,-2.50
2017,01,05,14,06,-2.50
2017,01,05,14,07,-2.50
2017,01,05,14,08,-2.40
2017,01,05,14,09,-2.40
2017,01,05,14,10,-2.40
2017,01,05,14,11,-2.40
2017,01,05,14,12,-2.30
2017,01,05,14,13,-2.30
2017,01,05,14,14,-2.30
2017,01,05,14,15,-2.30
2017,01,05,14,16,-2.30
2017,01,05,14,17,-2.40
2017,01,05,14,18,-2.40
2017,01,05,14,19,-2.40
2017,01,05,14,20,-2.40
2017,01,05,14,21,-2.40
2017,01,05,14,22,-2.50
2017,01,05,14,23,-2.50
2017,01,05,14,24,-2.50
2017,01,05,14,25,-2.50
2017,01,05,14,26,-2.50
2017,01,05,14,27,-2.50
2017,01,05,14,28,-2.50
2017,01,05,14,29,-2.50
2017,01,05,14,30,-2.50
2017,01,05,14,31,-2.50
2017,01,05,14,32,-2.50
2017,01,05,14,33,-2.50
2017,01,05,14,34,-2.50
2017,01,05,14,35,-2.50
2017,01,05,14,36,-2.50
2017,01,05,14,37,-2.50
2017,01,05,14,38,-2.50
2017,01,05,14,39,-2.50
2017,01,05,14,40,-2.40
2017,01,05,14,41,-2.40
2017,01,05,14,42,-2.40
2017,01,05,14,43,-2.40
2017,01,05,14,44,-2.40
2017,01,05,14,45,-2.40
2017,01,05,14,46,-2.40
2017,01,05,14,47,-2.40
2017,01,05,14,48,-2.40
2017,01,05,14,49,-2.30
2017,01,05,14,50,-2.30
2017,01,05,14,51,-2.30
2017,01,05,14,52,-2.30
2017,01,05,14,53,-2.30
2017,01,05,14,54,-2.30
2017,01,05,14,55,-2.20
2017,01,05,14,56,-2.20
2017,01,05,14,57,-2.20
2017,01,05,14,58,-2.20
2017,01,05,14,59,-2.20
2017,01,05,15,00,-2.20
2017,01,05,15,01,-2.20
2017,01,05,15,02,-2.20
2017,01,05,15,03,-2.20
2017,01,05,15,04,-2.30
2017,01,05,15,05,-2.30
2017,01,05,15,06,-2.30
2017,01,05,15,07,-2.30
2017,01,05,15,08,-2.30
2017,01,05,15,09,-2.30
2017,01,05,15,10,-2.30
2017,01,05,15,11,-2.30
2017,01,05,15,12,-2.30
2017,01,05,15,13,-2.30
2017,01,05,15,14,-2.30
2017,01,05,15,15,-2.30
2017,01,05,15,16,-2.40
2017,01,05,15,17,-2.40
2017,01,05,15,18,-2.40
2017,01,05,15,19,-2.40
2017,01,05,15,20,-2.40
2017,01,05,15,21,-2.40
2017,01,05,15,22,-2.40
2017,01,05,15,23,-2.30
2017,01,05,15,24,-2.30
2017,01,05,15,25,-2.30
2017,01,05,15,26,-2.30
2017,01,05,15,27,-2.30
2017,01,05,15,28,-2.30
2017,01,05,15,29,-2.30
2017,01,05,15,30,-2.30
2017,01,05,15,31,-2.30
2017,01,05,15,32,-2.30
2017,01,05,15,33,-2.30
2017,01,05,15,34,-2.30
2017,01,05,15,35,-2.30
2017,01,05,15,36,-2.30
2017,01,05,15,37,-2.30
2017,01,05,15,38,-2.30
2017,01,05,15,39,-2.30
2017,01,05,15,40,-2.30
2017,01,05,15,41,-2.30
2017,01,05,15,42,-2.30
2017,01,05,15,43,-2.20
2017,01,05,15,44,-2.20
2017,01,05,15,45,-2.20
2017,01,05,15,46,-2.20
2017,01,05,15,47,-2.20
2017,01,05,15,48,-2.20
2017,01,05,15,49,-2.20
2017,01,05,15,50,-2.20
2017,01,05,15,51,-2.20
2017,01,05,15,52,-2.20
2017,01,05,15,53,-2.20
2017,01,05,15,54,-2.20
2017,01,05,15,55,-2.20
2017,01,05,15,56,-2.20
2017,01,05,15,57,-2.20
2017,01,05,15,58,-2.20
2017,01,05,15,59,-2.20
2017,01,05,16,00,-2.20
2017,01,05,16,01,-2.20
2017,01,05,16,02,-2.20
2017,01,05,16,03,-2.20
2017,01,05,16,04,-2.20
2017,01,05,16,05,-2.20
2017,01,05,16,06,-2.20
2017,01,05,16,07,-2.20
2017,01,05,16,08,-2.20
2017,01,05,16,09,-2.20
2017,01,05,16,10,-2.20
2017,01,05,16,11,-2.20
2017,01,05,16,12,-2.20
2017,01,05,16,13,-2.20
2017,01,05,16,14,-2.20
2017,01,05,16,15,-2.30
2017,01,05,16,16,-2.30
2017,01,05,16,17,-2.30
2017,01,05,16,18,-2.30
2017,01,05,16,19,-2.30
2017,01,05,16,20,-2.30
2017,01,05,16,21,-2.30
2017,01,05,16,22,-2.30
2017,01,05,16,23,-2.30
2017,01,05,16,24,-2.30
2017,01,05,16,25,-2.30
2017,01,05,16,26,-2.30
2017,01,05,16,27,-2.30
2017,01,05,16,28,-2.30
2017,01,05,16,29,-2.30
2017,01,05,16,30,-2.30
2017,01,05,16,31,-2.30
2017,01,05,16,32,-2.30
2017,01,05,16,33,-2.30
2017,01,05,16,34,-2.30
2017,01,05,16,35,-2.30
2017,01,05,16,36,-2.30
2017,01,05,16,37,-2.30
2017,01,05,16,38,-2.30
2017,01,05,16,39,-2.30
2017,01,05,16,40,-2.30
2017,01,05,16,41,-2.40
2017,01,05,16,42,-2.40
2017,01,05,16,43,-2.40
2017,01,05,16,44,-2.40
2017,01,05,16,45,-2.40
2017,01,05,16,46,-2.40
2017,01,05,16,47,-2.40
2017,01,05,16,48,-2.40
2017,01,05,16,49,-2.40
2017,01,05,16,50,-2.40
2017,01,05,16,51,-2.40
2017,01,05,16,52,-2.40
2017,01,05,16,53,-2.40
2017,01,05,16,54,-2.40
2017,01,05,16,55,-2.40
2017,01,05,16,56,-2.40
2017,01,05,16,57,-2.40
2017,01,05,16,58,-2.40
2017,01,05,16,59,-2.40
2017,01,05,17,00,-2.40
2017,01,05,17,01,-2.40
2017,01,05,17,02,-2.40